sat.trackr.live / text

‹ back to catalog

STARLINK-11404 [DTC]

NORAD 62019 · 2024-213M

PAYLOAD ACTIVE UNKNOWN

§ Identity

Operator
Country
US
Launch date
2024-11-18
Launch site
AFWTR
Launch vehicle
Mass (kg)
RCS (m²)

Purposes: comms

External: N2YO · Heavens-Above · Gunter

§ Orbital elements

Epoch: 2026-09-21T20:59:15.720000Z

Period
91.73 min
Inclination
53.1583°
Eccentricity
0.0001299
Mean motion
15.69833132 rev/d
Perigee alt
358.5 km
Apogee alt
360.2 km
Semi-major
6,737.5 km
B*
1.4928e-3
RAAN
154.4777°
Arg perigee
150.2740°
Mean anomaly
209.8352°
Rev number
10,572

§ Raw data

STARLINK-11404 [DTC]1 62019U 24213M   26264.87448750  .00185303  00000+0  14928-2 0  99982 62019  53.1583 154.4777 0001299 150.2740 209.8352 15.69833132105725

JSON: /api/v1/satellites/62019 · /tle

For live sub-satellite position, see the globe view (requires WebGL).

§ Visibility from observer

Set your observer location to see the next 7 days of passes ≥ 10°. The values pass through the URL so the page stays shareable.

No JS? Fill the form by hand. The geolocation button needs JavaScript.